Simultaneous Nadir Overpasses (SNOs) Predictions

Prediction of SNOs between NOAA-20 and METOP-B Satellite Orbit:

Table of predicted SNOs for the next 14.0 days since TLE Epoch: 2/13/2019
Index Date (NOAA-20) Time (NOAA-20) Lat,Lon (NOAA-20) SZA (NOAA-20 ) Date (METOP-B) Time (METOP-B) Lat,Lon (METOP-B) SZA (METOP-B ) Distance(km) Time Diff (sec)
1 02/27/2019 14:23:17 73.47, -45.56 82.10 02/27/2019 14:24:24 73.42, -43.01 81.89 80.96 67
2 02/27/2019 15:13:59 -73.37, 122.00 98.04 02/27/2019 15:15:08 -73.32, 124.10 98.22 66.90 69
3 02/27/2019 16:04:41 73.18, -70.26 81.75 02/27/2019 16:05:52 73.10, -69.06 81.58 39.85 71
4 02/27/2019 16:55:23 -73.07, 97.29 98.39 02/27/2019 16:56:35 -73.05, 98.16 98.48 28.53 72
5 02/27/2019 17:46:05 72.88, -94.99 81.39 02/27/2019 17:47:18 72.88, -94.87 81.36 3.92 73
6 02/27/2019 18:36:48 -72.82, 72.44 98.69 02/27/2019 18:38:01 -72.83, 72.36 98.70 3.00 73
7 02/27/2019 19:27:34 72.83,-120.27 81.31 02/27/2019 19:28:40 72.86,-120.25 81.32 3.00 66
8 02/27/2019 20:18:18 -72.82, 47.06 98.72 02/27/2019 20:19:23 -72.81, 46.98 98.74 3.14 65
9 02/27/2019 21:09:04 72.83,-145.65 81.28 02/27/2019 21:10:02 72.84,-145.63 81.27 0.74 58




NCC Satellite Simultaneous Nadir Overpasses (SNOs) Prediction Service
